Location: Bad Lippspringe
(51.7833°N, 8.8168°E)
Time: 14:11:44
(UTC+00:00)

Daily predictions for brighter satellites

Satellite Brightness Start Highest point End
(mag) Time Altitude Azimuth Time Altitude Azimuth Time Altitude Azimuth
Cosmos 2344 4.4 16:19:09 10° NW 16:26:59 45° NNE 16:37:13 10° E
CZ-4B R/B 3.3 16:26:05 10° SSE 16:31:37 71° ENE 16:37:16 10° NNW
SL-24 R/B 4.2 16:29:11 10° SSE 16:33:32 67° ENE 16:38:16 10° N
Cosmos 1603 4.2 16:29:48 10° NW 16:35:29 68° WSW 16:41:09 10° SSE
Cosmos 2297 Rocket 3.7 16:30:32 10° WSW 16:35:29 30° NW 16:40:28 10° NNE
USA-17 4.3 16:34:15 10° SW 16:37:47 70° SE 16:40:51 10° NE
Cosmos 1538 Rocket 4.2 16:33:03 10° NNW 16:38:06 49° ENE 16:43:07 10° SE
NOAA 12 4.1 16:34:11 10° SSE 16:39:25 88° ENE 16:44:42 10° NNW
Cosmos 2279 Rocket 4.1 16:34:48 10° N 16:41:02 60° ENE 16:47:12 10° SSE
Cosmos 1536 Rocket 3.8 16:37:01 10° SSW 16:41:24 75° WNW 16:45:51 10° N
NOSS 7 (H) 4.1 16:38:26 10° SW 16:41:40 81° SE 16:44:35 10° NE
COSMO-SKYMED 1 3.8 16:38:51 10° NE 16:42:15 22° E 16:45:38 10° SE
ATLAS 5 CENTAUR R/B 1.6 16:38:48 10° SSW 16:42:49 63° SE 16:47:24 10° NE
Cosmos 968 Rocket 4.0 16:39:46 10° SW 16:44:49 61° WNW 16:49:55 10° NNE
H-2A R/B 2.7 16:42:04 10° S 16:46:07 75° WSW 16:50:22 10° NNW
CZ-2D R/B 4.0 16:43:38 10° SE 16:47:03 30° ENE 16:50:27 10° N
Lacrosse 5 1.8 16:42:34 10° WNW 16:47:40 78° NNE 16:52:43 10° ESE
Envisat 4.2 16:42:58 10° S 16:47:52 47° W 16:52:46 10° NNW
ADEOS Rocket 3.8 16:42:28 10° N 16:48:27 51° WNW 16:53:54 10° SW
Cosmos 1025 Rocket 4.3 16:44:20 10° SW 16:48:29 44° WNW 16:52:42 10° N
Aureole 3 4.4 16:46:17 10° NNE 16:48:54 18° ENE 16:51:14 10° ESE
Cosmos 1354 Rocket 4.0 16:46:50 10° SSW 16:52:10 81° ESE 16:57:32 10° NNE
FengYun 1-2 T 4.3 16:49:00 10° SSE 16:54:34 86° ENE 17:00:14 10° NNW
NOSS 3-1 (C) 4.2 16:48:34 10° NW 16:55:14 48° NNE 17:03:06 10° ESE
Cosmos 1634 Rocket 4.3 16:49:48 10° NNW 16:56:03 76° W 17:02:19 10° S
SL-14 R/B 3.2 16:53:29 10° S 16:57:22 87° E 17:01:20 10° NNE
ISS -1.4 16:56:01 10° SSE 16:57:37 13° SE 16:59:12 10° ESE
Okean-O 3.4 16:57:30 10° ESE 17:01:20 29° ENE 17:05:10 10° N
Okean O Rocket 1.8 16:57:54 10° S 17:02:20 77° WSW 17:06:48 10° NNW
CORIOLIS 4.5 16:57:33 10° S 17:02:57 73° WSW 17:08:21 10° NNW
RESURS DK-1 3.0 17:01:42 10° SW 17:05:46 54° NW 17:09:51 10° NNE
Cosmos 2263 Rocket 2.3 17:00:30 10° SSW 17:06:12 83° WNW 17:11:54 10° NNE
Cosmos 1455 2.9 17:04:40 10° N 17:08:07 31° ENE 17:11:34 10° SE
Helios 1A Rocket 3.9 17:06:00 10° ESE 17:09:26 26° ENE 17:12:53 10° N
Meteor 2-5 Rocket 3.7 17:03:56 10° SSW 17:09:30 85° WNW 17:15:05 10° NNE
Aureole 2 Rocket 3.4 17:07:50 10° SSE 17:10:14 22° ESE 17:10:58 20° E
Cosmos 1606 Rocket 3.8 17:07:57 10° NNW 17:12:19 72° W 17:16:43 10° S
USA 229 DEB 4.2 17:05:58 10° NW 17:12:46 46° NNE 17:19:08 13° E
USA 229 4.2 17:06:05 10° NW 17:12:51 46° NNE 17:19:10 14° E
Cosmos 1300 3.6 17:09:17 10° NNW 17:13:01 52° W 17:16:43 10° S
H-2A R/B 2.1 17:08:46 10° NNE 17:13:17 88° WNW 17:17:39 10° SSW
YAOGAN 1 3.1 17:13:22 10° SE 17:17:21 37° ENE 17:21:21 10° N
Cosmos 1892 Rocket 3.5 17:13:47 10° S 17:18:02 59° E 17:22:19 10° NNE
NOSS 3-4 (A) 4.3 17:12:20 10° W 17:18:04 44° NNW 17:23:48 12° NE
NOSS 3-4 (C) 4.3 17:12:28 10° W 17:18:14 44° NNW 17:23:58 12° NE
COSMOS 2406 4.2 17:14:13 10° NNW 17:19:09 28° NE 17:22:13 18° E
SMAP 4.4 17:15:04 10° S 17:19:30 43° W 17:23:58 10° NNW
Cosmos 2228 3.8 17:15:42 10° NNW 17:19:52 54° W 17:24:03 10° S
ARGOS 3.8 17:15:28 10° ESE 17:20:13 33° ENE 17:24:59 10° N
GENESIS II 4.4 17:16:30 10° SW 17:20:30 71° NW 17:23:36 16° NE
ERS-2 3.0 17:20:31 21° ENE 17:21:56 27° E 17:25:05 10° SSE
Aureole 1 4.3 17:20:06 10° NNW 17:23:08 47° ENE 17:26:04 10° SE
CZ-2C R/B 4.1 17:26:41 17° E 17:26:41 17° E 17:29:35 10° SE
Cosmos 1812 Rocket 4.3 17:23:51 10° N 17:27:44 29° ENE 17:31:35 10° SE
CZ-4B R/B 1.3 17:24:43 11° NNE 17:27:58 61° ESE 17:31:15 10° S
NOSS 3-1 (A) 4.2 17:21:40 10° NW 17:28:23 48° NNE 17:34:20 18° E
BREEZE-M DEB (TANK) 2.1 17:27:26 10° WSW 17:29:44 52° S 17:30:28 33° ESE
SKYMED 2 3.6 17:26:17 10° NNE 17:30:36 59° E 17:34:53 10° S
IRS-1C Rocket 4.0 17:25:42 10° SSE 17:30:57 76° ENE 17:36:14 10° NNW
SJ 16-02 1.9 17:28:32 10° S 17:32:34 36° ESE 17:34:30 24° NE
CSL-04 Debris 4.5 17:28:09 10° SE 17:33:10 42° ENE 17:38:12 10° N
ATLAS 2AS CENTAUR R/B 3.6 17:28:02 10° WSW 17:35:44 51° NNW 17:42:09 15° NE
SeaSat 1 4.3 17:31:55 10° NNE 17:35:53 25° NW 17:39:51 10° W
Cosmos 1833 Rocket 3.5 17:32:08 10° NNW 17:37:04 30° NE 17:38:57 25° ENE
Cosmos 158 Rocket 4.0 17:32:08 10° NNW 17:37:28 73° ENE 17:42:51 10° SSE
Meteor 1-24 Rocket 4.0 17:34:18 10° SSW 17:39:34 63° WNW 17:44:52 10° N
Cosmos 923 Rocket 4.0 17:34:26 10° NNW 17:39:48 70° ENE 17:45:07 10° SSE
Cosmos 2082 Rocket 3.4 17:36:32 10° NNW 17:41:03 23° NE 17:42:06 22° NE
Cosmos 1844 4.1 17:36:10 10° S 17:41:25 40° ESE 17:44:20 24° NE
Nadezhda 4 Rocket 3.9 17:37:07 10° S 17:43:16 64° E 17:49:25 10° NNE
Cosmos 1939 Rocket 3.9 17:40:06 10° S 17:44:06 49° W 17:48:05 10° NNW
Cosmos 2058 Rocket 3.5 17:41:36 10° NNW 17:46:05 66° W 17:50:33 10° S
Cosmos 1680 Rocket 3.5 17:41:35 10° NNW 17:46:49 62° ENE 17:51:59 10° SE
H-2A R/B 1.9 17:42:18 10° SSE 17:47:15 66° ENE 17:52:22 10° N
Cosmos 1898 Rocket 4.5 17:44:42 10° SSE 17:48:39 26° ESE 17:48:39 26° ESE
APEX 4.5 17:42:18 10° SSW 17:49:14 71° ESE 17:53:51 19° NE
CZ-4C R/B 3.3 17:44:20 10° W 17:49:29 38° NNW 17:53:55 17° NE
CZ-2C R/B 3.4 17:45:36 10° S 17:50:57 77° WSW 17:56:38 10° NNW
PSLV R/B 4.1 17:49:10 25° NE 17:51:23 51° E 17:55:29 10° S
COSMOS 2455 2.8 17:48:17 10° SSW 17:54:19 82° SE 17:58:25 22° NE
Meteor 2-13 Rocket 4.3 17:48:25 10° S 17:54:30 73° E 18:00:39 10° NNE
MOS 1 Rocket 2.9 17:51:17 10° NNE 17:55:39 80° ESE 17:59:55 10° S
Cosmos 2227 Rocket 4.4 17:53:08 10° WNW 17:56:36 16° NNW 18:00:06 10° NNE
SJ-11-01 4.1 17:52:50 10° SSE 17:57:31 73° ENE 18:02:12 10° N
CZ-4 R/B 1.4 17:54:18 10° SSE 17:58:24 82° WSW 18:02:27 10° NNW
USA 234 3.4 17:55:48 28° E 17:59:19 63° NNE 18:05:47 10° WNW
Cosmos 1844 Rocket 2.6 17:54:30 10° SSW 18:00:06 65° ESE 18:03:17 26° NE
Iridium 4 Rocket 3.7 17:56:21 10° N 18:02:01 56° E 18:07:15 10° SSE
Cosmos 1818 3.6 17:56:54 10° SSW 18:02:14 60° SE 18:04:20 36° ENE
Okean 1-7 Rocket 3.8 17:59:11 10° SSW 18:03:44 76° W 18:08:20 10° N
CREW DRAGON DEMO-1 DEB 3.9 18:02:24 10° W 18:05:06 35° SSW 18:05:17 35° SSW
SAR-Lupe-4 3.4 18:06:12 67° ESE 18:06:12 67° ESE 18:09:43 10° S
Cosmos 1626 Rocket 3.4 18:05:37 10° S 18:09:58 71° E 18:12:05 30° NNE
X-37B 2.8 18:08:05 10° SSW 18:09:46 17° S 18:09:46 17° S
Meteor 1-21 Rocket 4.0 18:08:18 10° S 18:13:48 80° E 18:19:24 10° NNE
Cosmos 1553 Rocket 4.2 18:09:09 10° N 18:15:22 48° ENE 18:18:15 30° SE
SAR-Lupe-1 4.0 18:17:08 76° S 18:17:08 76° S 18:20:26 10° SSW
Cosmos 44 4.1 18:13:52 10° S 18:17:27 35° SE 18:17:27 35° SE
COSMO-SKYMED 1 3.4 18:14:28 10° N 18:18:42 50° WNW 18:22:54 10° SW
Cosmos 2026 Rocket 3.9 18:14:09 10° S 18:20:07 59° E 18:26:13 10° NNE
Cosmos 2297 Rocket 4.5 18:19:05 10° NW 18:21:31 13° NNW 18:23:58 10° N
CSL-04 Rocket 3.6 18:17:42 10° SSE 18:23:07 88° ENE 18:28:40 10° NNW
SL-24 R/B - RUBIN 2 4.5 18:17:52 10° SW 18:24:35 83° SE 18:27:28 37° NE
Cosmos 2112 Rocket 4.0 18:19:21 10° NNW 18:24:39 82° WSW 18:28:48 16° SSE
ATLAS 5 CENTAUR R/B 2.9 18:23:52 10° W 18:27:46 33° NNW 18:29:12 27° N
Lacrosse 5 3.4 18:25:50 10° WNW 18:30:21 33° SW 18:34:00 14° S
ISS -1.9 18:30:32 10° SW 18:32:22 27° SW 18:32:22 27° SW
SL-08 RB Rocket 3.5 18:36:35 83° SSE 18:36:46 90° NE 18:41:18 10° NNW
Okean-O 3.9 18:33:31 10° SSW 18:37:41 40° W 18:41:54 10° NNW
S3M 4.4 18:31:49 10° N 18:36:31 42° NE 18:36:31 42° NE
Meteor 2-8 Rocket 4.5 18:32:16 10° NNW 18:38:22 78° W 18:44:27 10° S
Meteor 2-15 4.3 18:32:30 10° N 18:38:41 79° ENE 18:44:51 10° SSE
Meteor 1-27 4.3 18:36:02 10° N 18:40:53 56° NE 18:40:53 56° NE
MetOp-A 4.2 18:43:19 58° NNE 18:43:19 58° NNE 18:47:54 10° N
Cosmos 2344 4.2 18:33:46 10° NW 18:42:45 89° NE 18:51:01 24° SE
Aureole 2 Rocket 4.4 18:40:24 10° WSW 18:42:23 25° W 18:42:23 25° W
Cosmos 1455 4.5 18:40:27 10° NNW 18:43:37 25° W 18:46:47 10° SW
Helios 1A Rocket 4.2 18:40:30 10° S 18:44:25 41° W 18:48:22 10° NNW
NOSS 3-1 (C) 4.1 18:39:24 10° NW 18:46:43 74° SW 18:51:58 26° SSE
Cosmos 1602 Rocket 3.9 18:46:13 10° SSW 18:50:09 60° WSW 18:50:09 60° WSW
Cosmos 2263 Rocket 4.1 18:46:30 10° W 18:51:00 23° NW 18:54:29 14° N
USA 281 3.8 18:52:48 39° NNE 18:52:48 39° NNE 18:57:58 10° NNW
YAOGAN 1 4.5 18:49:43 10° SSW 18:53:31 30° W 18:57:20 10° NNW
ERS-2 3.9 18:55:04 28° NW 18:55:27 29° WNW 18:58:38 10° SW
Cosmos 990 Rocket 4.1 18:53:27 10° SSW 18:58:08 72° SW 18:58:08 72° SW
ARGOS 4.0 18:55:11 10° S 19:00:21 47° W 19:05:33 10° NNW
COSMOS 2406 3.2 18:58:19 10° NNW 19:04:08 79° WSW 19:04:20 78° SSW
USA 229 DEB 3.9 18:57:03 10° NW 19:04:17 75° SW 19:06:38 48° SSE
USA 229 3.9 18:57:09 10° NW 19:04:23 76° SW 19:06:40 48° SSE
USA 267 4.1 19:07:16 34° S 19:07:16 34° S 19:11:34 10° SSW
CZ-2C R/B 3.1 19:08:10 55° SSW 19:08:10 55° SSW 19:12:28 10° SSW
Meteor 2-15 Rocket 4.4 19:02:11 10° NNW 19:08:22 82° W 19:09:30 61° S
Ariane Rocket 4.4 19:12:51 29° NNW 19:12:51 29° NNW 19:15:17 10° NNW
SJ 16-02 2.9 19:07:13 10° WSW 19:11:12 32° NW 19:11:32 32° NW
CZ-3B R/B 3.9 19:16:26 10° W 19:19:38 34° SSW 19:20:08 33° SSW
NOSS 3-1 (A) 4.1 19:12:33 10° NW 19:19:52 73° SW 19:21:49 55° SSE
Cosmos 1833 Rocket 3.1 19:15:53 10° NW 19:20:41 60° WNW 19:20:41 60° WNW
Cosmos 2082 Rocket 3.1 19:20:17 10° NNW 19:23:58 41° NNW 19:23:58 41° NNW
H-2A R/B 4.4 19:23:25 10° SW 19:27:11 21° W 19:31:03 10° NW
ATLAS 2AS CENTAUR R/B 3.9 19:21:23 10° WNW 19:28:25 34° N 19:29:35 32° NNE
CZ-4C R/B 3.9 19:34:21 10° NW 19:39:06 30° N 19:39:06 30° N
COSMOS 2455 4.2 19:35:32 10° W 19:40:54 32° NNW 19:41:35 31° NNW
USA 234 3.4 19:43:09 67° W 19:43:09 67° W 19:48:53 10° WNW
Cosmos 1844 Rocket 4.2 19:39:25 10° WSW 19:44:26 31° NW 19:44:59 31° NNW
